Tracking 19254 objects as of 19-Oct-2018
HD Live streaming from Space Station
objects crossing your sky now

FENGYUN 1C DEB

Track FENGYUN 1C DEB now!
10-day predictions


NORAD ID: 37079
Int'l Code: 1999-025EFP
Perigee: 810.4 km
Apogee: 846.2 km
Inclination: 98.9 °
Period: 101.3 minutes
Semi major axis: 7199 km
RCS: 0.0038 m2 (small)
Launch date: May 10, 1999
Source: People's Republic of China (PRC)
Launch site: Taiyaun Space Center, China (TSC)

Note: This is SATELLITE DEBRIS
aabbcc
Your satellite tracking list
Your tracking list is empty




NASA's NSSDC Master Catalog

Two Line Element Set (TLE):
1 37079U 99025EFP 18291.32792129 +.00000986 +00000-0 +47239-3 0  9998
2 37079 098.9285 340.7154 0024816 178.0268 182.1011 14.21240078272886
Source of the keplerian elements: AFSPC